Temperature
11 11 10 10 11 10 10 10 10 10 10 13 13 13 14 15 15 15 15 14 14 14 13 12 11 11 10 10 9 9 8 8 7 7 6 6 5 5 4 4 4 3 3 2
11 11 10 11 10 10 10 10 10 10 11 12 13 13 13 14 14 14 15 15 14 14 13 12 12 11 10 10 9 8 8 7 7 6 6 5 5 4 4 4 3 3 2 2
9 11 10 10 10 10 9 9 10 11 12 13 12 11 12 14 14 15 15 15 14 14 13 12 12 11 10 9 9 8 7 7 6 6 5 5 4 4 4 3 3 2 2 1
8 10 9 11 11 11 11 10 10 10 11 12 11 13 14 14 14 15 15 14 14 13 13 12 11 10 9 9 8 7 7 6 6 5 5 4 4 4 3 2 2 2 1 1
7 8 8 10 10 10 10 10 10 10 11 11 11 11 12 14 14 14 14 14 13 13 12 11 10 9 9 8 7 7 6 6 5 5 4 4 3 3 2 2 1 1 1 0
6 8 9 11 12 11 11 11 11 10 10 9 9 10 11 14 14 14 13 13 12 12 11 10 9 8 8 7 7 6 6 5 5 4 4 3 3 2 2 1 1 0 0 -0
7 8 8 10 10 11 11 12 13 12 11 10 9 11 13 13 13 13 12 12 11 10 10 9 8 7 7 6 6 6 5 5 4 4 3 3 2 2 1 1 0 0 -0 -0
6 7 8 10 9 10 11 13 13 13 13 12 12 12 12 12 12 12 11 11 10 9 9 8 7 7 6 6 5 5 4 4 4 3 2 2 1 1 1 0 -0 -1 -1 -1
8 10 10 11 12 13 13 13 14 14 14 14 13 12 12 12 11 11 10 10 9 8 7 7 6 6 5 5 4 4 4 3 3 2 2 1 1 0 -0 -1 -1 -1 -2 -2
7 7 8 11 12 13 13 14 14 14 14 14 13 13 12 11 10 10 9 9 8 7 6 6 5 5 5 4 4 3 3 3 2 2 1 1 0 -0 -1 -1 -2 -2 -3 -3
7 7 8 10 12 14 14 13 13 13 13 13 12 12 11 10 10 9 8 7 7 6 6 5 5 4 4 3 3 3 2 2 1 1 0 0 -0 -1 -2 -2 -3 -3 -4 -4
8 8 9 11 14 14 14 13 13 13 12 12 12 11 11 10 9 8 7 7 6 5 5 4 4 4 3 3 2 2 2 1 1 0 -0 -1 -1 -2 -2 -3 -3 -4 -4 -5
12 13 13 13 13 13 13 13 13 12 12 11 11 10 10 9 8 7 6 6 5 5 4 4 3 3 2 2 2 1 1 0 -0 -1 -1 -2 -2 -3 -3 -3 -4 -4 -5 -5
12 12 11 12 13 13 12 12 11 11 10 10 10 9 8 8 7 6 5 5 4 4 3 3 3 2 2 1 1 1 0 -0 -1 -2 -2 -3 -3 -4 -4 -5 -5 -5 -5 -6
11 11 11 12 12 11 11 11 10 10 9 9 8 8 7 7 6 5 5 4 3 3 3 2 2 2 1 1 0 -0 -1 -1 -2 -2 -3 -3 -4 -5 -5 -6 -6 -7 -7 -7
10 10 10 10 10 10 10 10 9 9 8 8 7 7 6 6 5 4 4 3 3 2 2 2 1 1 0 -0 -1 -1 -2 -2 -3 -3 -4 -4 -5 -6 -6 -7 -7 -8 -8 -8
9 8 8 9 9 9 9 9 9 8 8 7 6 6 5 4 4 3 3 2 2 2 1 1 1 0 -0 -1 -1 -2 -2 -3 -3 -4 -4 -5 -6 -6 -7 -8 -8 -9 -9 -9
10 10 10 10 9 9 8 7 7 7 6 6 5 4 4 3 3 3 2 2 1 1 1 0 -0 -1 -1 -2 -2 -3 -3 -4 -4 -5 -5 -6 -7 -7 -8 -8 -9 -9 -9 -9
8 8 8 8 8 7 7 6 6 5 5 4 4 3 3 2 2 2 1 1 1 0 -0 -1 -1 -2 -2 -3 -3 -4 -4 -5 -5 -6 -6 -7 -8 -8 -8 -9 -9 -10 -10 -10
6 6 6 6 6 6 6 5 5 4 4 3 3 2 2 1 1 1 0 0 -0 -1 -1 -2 -2 -2 -3 -3 -4 -5 -5 -5 -6 -7 -7 -8 -8 -9 -9 -10 -10 -10 -11 -11
5 5 5 5 5 4 4 4 4 3 2 2 2 1 1 0 0 -0 -1 -1 -1 -2 -2 -2 -3 -3 -4 -4 -5 -5 -6 -7 -7 -8 -8 -9 -9 -9 -10 -10 -10 -11 -11 -11
4 4 4 4 3 3 3 2 2 2 1 1 1 0 0 -0 -1 -1 -1 -2 -2 -3 -3 -3 -4 -4 -5 -6 -6 -7 -7 -8 -8 -8 -9 -9 -10 -10 -10 -11 -11 -11 -12 -12
3 3 2 2 2 2 1 1 1 1 0 0 -0 -1 -1 -1 -2 -2 -2 -2 -3 -3 -4 -4 -4 -5 -6 -6 -7 -7 -8 -8 -8 -9 -9 -10 -10 -11 -11 -11 -12 -12 -12 -12
1 1 1 1 1 1 0 -0 -0 -0 -1 -1 -1 -2 -2 -2 -2 -3 -3 -3 -4 -4 -5 -5 -5 -6 -7 -7 -7 -8 -8 -9 -9 -10 -10 -11 -11 -11 -12 -12 -12 -12 -12 -13
1 0 0 0 0 -0 -1 -1 -1 -1 -1 -2 -2 -2 -3 -3 -3 -4 -4 -4 -5 -5 -5 -6 -6 -7 -7 -7 -8 -8 -9 -9 -10 -11 -11 -11 -11 -12 -12 -12 -12 -13 -13 -13
-0 -0 -0 -1 -1 -1 -1 -1 -2 -2 -2 -2 -2 -3 -3 -4 -4 -4 -5 -5 -5 -6 -6 -7 -7 -7 -8 -8 -9 -9 -10 -10 -10 -11 -11 -11 -12 -12 -12 -12 -13 -13 -13 -13
-1 -1 -1 -1 -2 -2 -2 -2 -2 -3 -3 -3 -3 -4 -4 -4 -5 -5 -5 -6 -6 -7 -7 -7 -8 -8 -9 -9 -10 -10 -10 -11 -11 -11 -12 -12 -12 -12 -13 -13 -13 -13 -13 -13
Wind_Speed
7 7 8 9 11 13 13 13 12 11 13 16 13 11 9 8 6 6 7 9 12 12 12 11 11 11 11 10 10 10 10 9 8 6 5 5 4 4 4 4 5 5 6 6
6 7 8 7 10 12 14 12 12 11 13 14 11 7 8 9 8 9 10 10 11 11 11 13 13 12 11 11 10 10 10 9 7 6 5 5 5 4 4 5 5 5 6 7
6 4 3 9 11 12 9 9 11 15 17 12 7 9 10 10 9 11 10 9 10 11 12 12 12 12 12 11 9 9 9 7 7 6 5 5 4 4 5 6 5 7 7 7
5 5 9 10 7 11 11 11 13 11 10 10 10 8 7 7 8 9 8 8 8 8 9 8 8 9 9 9 10 9 8 6 6 5 5 4 4 5 6 5 6 7 8 8
6 6 8 8 6 8 10 11 12 14 13 8 2 1 5 7 7 7 6 6 6 6 7 7 9 10 10 9 8 8 7 6 6 5 5 5 5 6 6 5 6 7 7 8
6 6 8 9 6 6 6 7 9 11 12 7 7 3 6 2 4 3 4 4 6 7 7 8 8 10 10 9 8 7 6 6 5 5 5 6 7 6 5 5 7 7 8 8
6 7 8 8 3 9 6 9 5 8 9 10 10 7 2 4 4 4 5 6 7 8 8 8 9 10 9 8 7 6 4 4 4 4 5 6 5 5 5 6 7 8 10 9
7 6 9 7 9 10 10 4 3 5 7 9 8 4 4 4 5 6 6 7 8 8 7 7 8 9 8 6 5 4 4 3 3 4 4 4 5 6 6 6 8 9 9 10
11 10 6 8 10 8 5 5 6 6 7 8 7 6 6 5 6 6 7 7 7 9 8 6 6 7 7 5 4 4 3 3 4 4 4 4 5 6 6 6 7 8 8 10
5 8 7 7 6 5 7 7 6 6 7 9 8 8 8 7 6 6 6 7 7 9 9 6 5 5 5 4 4 3 3 3 4 4 5 5 5 5 6 6 7 8 9 11
6 6 4 7 9 9 7 6 5 5 6 8 9 8 8 8 8 7 6 6 7 8 8 6 5 4 3 3 3 3 3 4 4 5 6 6 6 6 7 7 9 10 9 10
9 9 9 9 8 9 9 9 9 8 6 5 8 8 8 8 7 8 8 7 7 6 6 5 4 3 3 3 3 3 4 5 4 5 5 5 7 8 12 14 18 20 21 20
8 6 7 4 3 6 8 8 8 8 8 7 6 8 9 7 7 7 7 7 7 7 6 5 4 3 3 3 3 4 5 5 5 5 6 6 7 8 10 12 16 19 21 22
5 5 4 6 5 6 6 6 6 6 5 6 7 7 8 7 7 8 8 7 6 6 5 4 3 3 3 3 3 5 5 7 6 6 6 6 7 8 9 11 13 10 13 20
8 7 6 4 5 6 6 7 8 6 6 6 6 8 9 9 9 7 6 6 6 5 3 3 3 4 3 3 4 5 5 5 5 6 6 7 8 8 9 11 12 13 11 13
7 5 5 6 7 7 7 8 8 8 7 7 7 7 7 7 7 6 6 6 5 4 3 3 4 4 3 3 4 5 5 10 10 7 7 7 8 9 10 11 12 12 12 12
9 8 8 7 8 8 8 8 8 9 8 8 8 8 9 8 7 6 4 3 3 2 2 3 4 4 4 4 5 5 5 8 13 10 8 8 9 10 11 11 12 13 13 15
10 11 10 10 10 10 8 7 8 8 7 7 9 9 9 8 7 5 4 2 1 1 3 4 4 4 5 5 5 5 6 7 7 8 9 9 10 10 10 11 13 14 13 14
7 7 8 8 9 9 9 8 8 8 8 9 9 8 6 5 5 4 3 2 1 3 4 4 6 5 6 7 8 6 7 8 9 9 9 14 14 10 11 12 13 14 14 14
6 7 9 9 8 8 9 9 9 9 8 9 9 8 6 4 4 3 2 1 3 4 4 6 6 6 6 8 11 6 8 9 10 11 11 11 12 12 12 13 13 14 14 13
9 10 11 11 10 9 9 10 11 10 8 8 8 7 5 3 2 2 1 3 4 4 5 8 6 6 7 9 12 7 8 9 11 11 11 12 13 13 13 13 14 14 14 14
9 11 12 12 13 11 8 9 10 10 9 7 7 6 4 2 1 1 3 4 5 7 6 5 6 10 12 14 8 8 9 10 11 11 11 12 12 13 14 14 14 14 14 14
11 12 12 12 12 11 10 9 9 8 8 6 5 4 2 1 1 1 4 3 4 9 8 6 11 17 20 12 7 8 9 11 11 11 12 12 13 13 14 15 15 14 14 14
12 12 12 11 11 12 10 7 7 6 6 4 3 2 1 1 2 2 4 8 11 12 8 11 17 19 19 8 8 9 10 11 11 12 13 13 13 13 14 14 15 14 15 16
12 12 11 11 10 8 8 7 7 6 5 3 2 1 1 1 2 4 5 6 11 12 8 12 18 19 12 9 9 10 11 12 13 14 13 13 13 14 14 14 15 15 15 15
10 9 8 8 7 6 5 5 4 3 3 2 2 2 2 2 3 4 5 6 9 13 10 8 10 13 10 10 11 12 12 14 15 13 13 15 15 15 15 15 16 16 15 15
10 9 8 7 6 5 5 4 4 2 2 2 3 3 3 4 5 5 7 7 8 8 9 9 9 9 10 11 12 12 12 13 13 13 14 14 14 14 15 16 15 15 15 15
Wind_Direction
199 184 168 190 197 191 200 208 215 231 235 250 255 254 262 264 250 222 217 207 202 200 196 189 186 184 182 179 173 168 168 176 187 187 187 194 208 222 232 240 248 255 265 271
208 206 195 216 218 205 214 221 230 247 258 253 254 247 252 253 241 234 230 219 209 200 192 190 188 185 179 177 173 167 172 181 180 180 188 203 218 228 241 253 260 263 265 269
208 202 179 243 216 203 205 206 200 227 243 251 245 240 240 244 236 234 233 220 207 201 197 192 186 179 179 173 162 164 172 176 179 183 197 215 224 234 248 257 262 268 268 268
157 143 221 239 216 202 208 223 211 221 238 237 233 241 243 232 229 234 226 213 203 193 187 178 167 162 156 152 157 163 169 177 182 188 206 222 233 245 253 255 259 264 268 269
153 200 259 285 245 188 197 244 223 223 239 240 214 315 281 234 216 223 215 198 185 171 160 152 153 150 144 147 153 161 174 185 192 196 210 226 241 251 255 258 263 263 265 269
151 183 227 238 228 169 142 257 242 208 225 207 146 192 262 230 181 178 153 144 140 132 128 139 144 141 142 150 158 176 186 193 196 199 212 230 243 254 257 257 264 271 272 269
166 204 247 243 179 126 167 237 240 196 201 175 185 205 201 125 120 127 122 122 127 128 133 141 141 139 143 153 176 184 177 183 198 213 225 237 248 255 265 270 275 275 277 276
163 194 241 211 149 181 212 210 183 183 184 183 193 160 145 144 137 133 126 125 128 128 125 129 138 140 145 166 174 162 166 189 219 234 243 249 253 267 269 270 277 280 282 284
189 209 221 181 195 210 180 189 197 189 188 172 174 183 173 164 155 148 142 138 133 132 128 128 138 142 152 168 157 155 173 215 239 252 255 253 254 265 272 268 272 281 284 288
210 246 238 224 230 224 201 204 202 188 173 168 178 179 173 165 159 153 147 143 138 136 138 143 147 145 156 160 158 164 207 239 251 258 266 263 258 257 262 267 272 279 283 287
218 252 275 258 227 219 207 201 187 172 174 179 173 172 172 169 167 162 152 146 146 148 150 156 154 155 161 163 159 190 231 249 256 256 260 267 264 256 263 253 259 274 278 278
211 209 196 224 222 198 191 199 191 173 168 171 174 173 166 168 165 159 154 148 146 147 151 158 158 166 177 179 178 202 242 253 255 259 263 266 275 283 273 273 282 283 284 285
206 198 193 222 201 182 191 196 182 176 172 167 167 163 158 156 156 152 151 153 158 160 160 159 164 186 205 200 200 218 240 255 259 261 266 271 276 284 293 294 286 286 288 290
192 151 181 206 202 182 166 150 139 136 143 147 147 143 142 140 145 153 161 162 153 147 151 161 180 218 227 219 225 240 248 263 268 260 263 268 273 276 282 291 299 294 290 291
202 197 194 169 142 136 135 130 131 139 138 132 136 141 146 151 157 158 148 137 133 138 154 173 214 247 245 234 242 253 258 262 263 263 264 268 272 276 279 282 287 292 294 293
183 167 161 160 165 158 150 154 157 164 156 148 147 149 148 142 136 130 131 137 144 167 191 213 245 256 255 249 256 261 263 279 286 278 272 274 275 278 282 284 287 290 291 293
163 180 182 182 184 180 179 177 169 163 154 152 151 138 129 125 123 127 132 138 149 181 213 235 254 268 266 259 258 264 267 279 289 287 277 278 279 280 281 283 286 288 288 290
196 194 183 177 177 175 170 160 152 148 149 145 134 131 135 142 149 152 145 123 91 319 269 251 256 271 269 267 264 263 268 273 275 276 278 279 281 279 280 282 284 286 288 291
178 168 163 160 158 154 151 148 143 136 131 133 134 136 135 133 132 133 130 131 205 277 276 269 288 288 277 278 287 268 271 277 281 280 280 286 289 283 282 283 284 285 288 290
142 138 134 131 128 131 133 129 125 122 124 126 123 119 116 117 122 126 138 225 239 241 262 284 289 278 276 279 290 274 273 277 281 284 285 284 285 286 285 285 286 286 287 287
132 128 125 121 113 110 118 123 123 121 118 120 124 127 126 121 122 132 174 280 279 265 276 292 291 282 285 287 291 278 276 280 283 285 287 288 288 289 288 288 287 288 288 287
122 120 117 115 111 103 98 104 112 114 112 107 106 110 112 109 103 273 246 247 274 296 299 282 281 290 297 298 287 281 281 284 287 287 287 287 288 289 289 288 287 287 287 286
112 113 112 111 111 106 96 94 101 107 108 108 110 112 119 169 226 266 294 284 286 300 303 285 295 301 304 303 290 288 288 288 288 288 287 286 286 286 287 287 287 287 287 287
107 105 106 107 106 103 98 92 90 91 92 87 86 92 101 321 298 260 262 297 307 306 299 297 304 306 309 304 294 291 289 288 287 286 286 286 286 286 286 287 288 288 287 286
105 105 105 104 101 101 104 100 90 82 76 67 46 18 327 252 265 289 292 295 304 309 301 303 307 309 308 296 292 290 289 287 287 290 288 290 290 289 288 288 287 287 287 286
100 98 94 93 99 103 102 96 89 74 60 35 360 341 324 304 291 292 296 295 296 305 305 299 298 301 297 293 291 290 290 292 292 291 289 289 289 288 288 287 286 286 286 286
91 92 92 86 77 79 83 85 83 62 32 1 328 322 322 318 312 308 305 304 303 302 300 299 298 296 295 294 293 292 292 291 291 290 290 290 289 289 288 287 288 288 287 286
Height
1457 1457 1462 1463 1465 1470 1473 1473 1476 1472 1469 1459 1453 1452 1451 1450 1450 1450 1451 1451 1452 1454 1457 1461 1465 1469 1474 1478 1481 1485 1487 1490 1491 1493 1494 1494 1494 1493 1492 1490 1488 1486 1484 1482
1456 1456 1458 1460 1460 1463 1464 1464 1466 1464 1461 1448 1447 1447 1447 1446 1446 1446 1446 1447 1448 1450 1453 1456 1459 1463 1468 1472 1476 1480 1482 1485 1487 1488 1489 1489 1489 1488 1486 1485 1483 1480 1478 1475
1459 1455 1457 1461 1454 1455 1457 1456 1456 1457 1448 1441 1443 1443 1441 1441 1441 1441 1442 1443 1444 1446 1448 1451 1455 1459 1463 1467 1471 1475 1478 1480 1482 1483 1483 1484 1483 1482 1480 1478 1476 1474 1471 1468
1457 1459 1464 1446 1437 1439 1443 1443 1443 1441 1438 1436 1437 1436 1437 1437 1437 1437 1438 1439 1441 1443 1445 1448 1452 1455 1459 1463 1467 1470 1473 1475 1477 1478 1478 1478 1477 1476 1474 1472 1470 1467 1464 1461
1458 1458 1452 1443 1435 1435 1439 1438 1432 1434 1432 1432 1433 1435 1433 1432 1433 1434 1435 1437 1438 1440 1443 1446 1449 1452 1456 1460 1463 1466 1469 1471 1472 1473 1473 1472 1471 1470 1468 1465 1463 1460 1457 1454
1453 1453 1451 1435 1425 1425 1432 1435 1424 1425 1426 1428 1432 1437 1432 1429 1430 1431 1433 1435 1436 1438 1441 1444 1447 1450 1454 1457 1460 1463 1465 1467 1468 1468 1467 1466 1465 1463 1461 1458 1455 1452 1449 1446
1446 1445 1440 1426 1423 1426 1438 1429 1417 1418 1419 1423 1426 1427 1427 1427 1429 1430 1432 1433 1435 1437 1440 1443 1446 1449 1452 1455 1458 1460 1462 1462 1463 1463 1462 1461 1459 1457 1454 1451 1448 1444 1441 1437
1441 1443 1437 1417 1421 1423 1418 1414 1414 1415 1417 1419 1421 1423 1425 1426 1427 1429 1430 1432 1434 1436 1439 1442 1445 1448 1450 1453 1455 1457 1457 1458 1458 1457 1456 1455 1452 1450 1448 1444 1440 1436 1431 1427
1418 1417 1410 1408 1409 1409 1410 1411 1412 1413 1415 1417 1419 1421 1423 1424 1426 1428 1429 1431 1433 1435 1438 1441 1444 1446 1448 1450 1452 1452 1453 1453 1452 1451 1450 1448 1446 1443 1440 1437 1432 1428 1423 1418
1412 1408 1404 1404 1405 1406 1407 1408 1410 1412 1413 1415 1416 1418 1420 1422 1424 1426 1428 1430 1432 1434 1437 1439 1442 1444 1446 1447 1448 1448 1448 1448 1447 1445 1443 1442 1439 1436 1432 1429 1424 1420 1415 1410
1406 1402 1401 1400 1400 1401 1403 1405 1407 1409 1411 1412 1414 1416 1418 1420 1422 1424 1426 1428 1431 1433 1435 1438 1440 1441 1443 1443 1443 1443 1443 1442 1440 1439 1436 1434 1431 1428 1424 1421 1418 1413 1408 1403
1397 1393 1395 1393 1394 1397 1399 1400 1403 1405 1407 1409 1411 1413 1415 1417 1419 1421 1424 1426 1429 1431 1433 1435 1437 1438 1439 1439 1439 1438 1437 1435 1434 1431 1429 1426 1422 1419 1416 1413 1409 1405 1401 1397
1384 1386 1388 1389 1391 1393 1395 1397 1399 1401 1404 1406 1408 1410 1412 1414 1417 1419 1421 1424 1426 1429 1431 1433 1434 1435 1435 1434 1433 1432 1431 1429 1427 1424 1421 1418 1414 1410 1405 1401 1399 1396 1392 1388
1380 1383 1384 1385 1387 1389 1391 1394 1396 1398 1401 1403 1405 1407 1409 1411 1414 1416 1419 1422 1424 1426 1428 1429 1430 1430 1430 1429 1428 1426 1424 1422 1420 1417 1414 1410 1407 1403 1398 1392 1387 1382 1381 1378
1376 1378 1380 1381 1383 1386 1388 1390 1393 1395 1397 1399 1402 1404 1406 1409 1411 1414 1417 1419 1422 1423 1425 1425 1426 1426 1425 1423 1422 1420 1418 1415 1412 1409 1406 1403 1399 1394 1390 1385 1379 1374 1369 1366
1371 1374 1376 1378 1380 1382 1384 1387 1389 1392 1394 1397 1399 1402 1404 1407 1410 1412 1415 1417 1418 1420 1421 1421 1421 1421 1419 1418 1415 1413 1411 1408 1405 1401 1398 1394 1390 1386 1381 1376 1371 1366 1362 1357
1366 1368 1370 1373 1375 1378 1381 1383 1386 1389 1391 1394 1397 1400 1402 1405 1407 1410 1412 1414 1416 1417 1417 1417 1416 1415 1413 1411 1409 1406 1403 1400 1398 1394 1390 1386 1382 1377 1373 1368 1363 1358 1353 1350
1359 1362 1365 1368 1371 1374 1377 1381 1384 1386 1389 1392 1395 1398 1400 1403 1405 1407 1409 1411 1412 1413 1413 1412 1411 1409 1407 1405 1402 1399 1396 1392 1389 1385 1381 1377 1373 1368 1364 1359 1354 1349 1344 1340
1354 1358 1361 1365 1368 1371 1374 1378 1381 1384 1388 1390 1393 1396 1399 1401 1403 1405 1407 1408 1408 1408 1408 1407 1405 1403 1401 1398 1395 1392 1388 1384 1380 1376 1372 1368 1363 1359 1355 1350 1345 1340 1335 1331
1351 1354 1358 1361 1365 1369 1372 1376 1379 1383 1386 1389 1392 1395 1397 1399 1401 1403 1404 1404 1404 1404 1402 1401 1399 1397 1394 1391 1388 1384 1380 1376 1372 1367 1363 1359 1354 1349 1345 1340 1335 1331 1326 1321
1348 1352 1355 1359 1363 1368 1371 1375 1378 1382 1385 1389 1391 1394 1396 1398 1399 1400 1400 1400 1400 1399 1397 1395 1393 1390 1386 1383 1379 1376 1372 1367 1363 1358 1354 1349 1344 1339 1335 1330 1326 1321 1316 1312
1347 1351 1355 1359 1363 1367 1372 1375 1379 1382 1385 1388 1391 1393 1394 1396 1396 1397 1397 1396 1395 1393 1391 1388 1386 1382 1379 1375 1371 1367 1363 1359 1354 1349 1344 1340 1335 1329 1324 1320 1315 1311 1306 1302
1348 1352 1356 1360 1364 1368 1373 1377 1380 1383 1386 1388 1390 1392 1393 1393 1393 1393 1392 1391 1389 1387 1384 1381 1378 1375 1371 1367 1362 1358 1354 1349 1345 1340 1335 1330 1325 1320 1314 1310 1305 1301 1296 1292
1350 1355 1359 1363 1367 1371 1374 1378 1381 1384 1386 1388 1389 1390 1391 1390 1390 1389 1387 1385 1383 1380 1377 1374 1370 1366 1362 1358 1354 1349 1344 1339 1335 1330 1324 1319 1315 1310 1305 1300 1295 1290 1286 1281
1355 1359 1363 1366 1370 1373 1377 1380 1382 1384 1386 1387 1388 1388 1388 1387 1386 1384 1382 1379 1376 1373 1369 1366 1362 1358 1354 1349 1344 1340 1335 1330 1325 1320 1315 1310 1305 1300 1295 1290 1285 1280 1275 1271
1359 1363 1366 1370 1373 1376 1378 1381 1383 1384 1385 1385 1386 1385 1384 1383 1381 1378 1376 1372 1369 1365 1362 1358 1354 1349 1345 1340 1335 1330 1325 1320 1315 1310 1305 1300 1294 1289 1284 1279 1275 1270 1265 1260
1363 1367 1370 1373 1376 1378 1380 1381 1382 1383 1383 1383 1382 1381 1380 1378 1375 1372 1369 1366 1362 1358 1354 1350 1345 1341 1336 1331 1326 1321 1316 1310 1305 1300 1295 1290 1284 1279 1274 1269 1264 1259 1254 1249